Home   Weather   Rostov-on-Don   Past weeks
Flag for Russia

Past Weather in Rostov-on-Don, Russia — Yesterday and Last 2 Weeks

Now
75 °F

Passing clouds.


Feels Like: 77 °F
Forecast: 76 / 53 °F
Wind: 3 mph from Southeast

Location: Krasnodar Airport

Current Time: Apr 26, 2019 at 5:31:29 pm

Latest Report: Apr 26, 2019 at 4:30 pm


Visibility: N/A

Pressure: 30.09 "Hg

Humidity: 27%

Dew Point: 39 °F

Location of Rostov-on-DonLocation

Past Weather in Rostov-on-Don — Graph

°F

Rostov-on-Don Temperature Yesterday

Maximum temperature yesterday: 73 °F (at 3:30 pm)
Minimum temperature yesterday: 43 °F (at 5:00 am)
Average temperature yesterday: 58 °F

High & Low Weather Summary for the Past Weeks

 TemperatureHumidityPressure
High75 °F (Apr 26, 4:00 pm)100% (Apr 14, 12:00 am)30.42 "Hg (Apr 14, 12:00 am)
Low36 °F (Apr 20, 1:30 am)24% (Apr 23, 4:30 pm)29.71 "Hg (Apr 14, 9:00 pm)
Average52 °F73%30.07 "Hg
* Reported Apr 11 4:00 pm — Apr 26 4:00 pm, Rostov-on-Don. Weather by CustomWeather, © 2019

Note: Actual official high and low records may vary slightly from our data, if they occured in-between our weather recording intervals... More about our weather records

Advertising

Rostov-on-Don Weather History for the Previous 24 Hours

Scroll right to see more
 ConditionsComfort  
Time TempWeatherWind HumidityBarometerVisibility
4:00 pm
Fri, Apr 26
75 °FPassing clouds.6 mph29%30.09 "HgN/A
3:30 pm73 °FPassing clouds.6 mph36%30.12 "HgN/A
3:00 pm73 °FSunny.6 mph33%30.12 "Hg10 mi
2:30 pm73 °FPassing clouds.6 mph36%30.12 "HgN/A
2:00 pm73 °FPassing clouds.6 mph33%30.12 "HgN/A
1:30 pm73 °FSunny.3 mph36%30.15 "Hg10 mi
1:00 pm72 °FSunny.1 mph36%30.15 "Hg10 mi
12:30 pm72 °FPassing clouds.6 mph36%30.15 "HgN/A
12:00 pm70 °FSunny.1 mph38%30.15 "Hg10 mi
11:30 am70 °FSunny.1 mph38%30.18 "Hg10 mi
11:00 am66 °FPassing clouds.3 mph46%30.18 "HgN/A
10:30 am64 °FSunny.3 mph49%30.18 "Hg10 mi
10:00 am63 °FPassing clouds.6 mph49%30.18 "HgN/A
9:30 am61 °FPassing clouds.6 mph55%30.21 "HgN/A
9:00 am59 °FPassing clouds.3 mph59%30.21 "HgN/A
8:30 am57 °FPassing clouds.3 mph67%30.21 "HgN/A
8:00 am54 °FPassing clouds.3 mph77%30.21 "HgN/A
7:30 am52 °FPassing clouds.3 mph77%30.21 "HgN/A
7:00 am52 °FSunny.1 mph77%30.21 "Hg10 mi
6:30 am48 °FSunny.1 mph87%30.21 "Hg10 mi
6:00 am45 °FSunny.1 mph93%30.21 "Hg10 mi
5:30 am45 °FSunny.1 mph93%30.21 "Hg10 mi
5:00 am46 °FClear.1 mph93%30.21 "Hg10 mi
4:30 am45 °FClear.3 mph93%30.21 "Hg10 mi
4:00 am46 °FClear.3 mph87%30.24 "Hg10 mi
3:30 am45 °FClear.3 mph100%30.24 "Hg10 mi
3:00 am45 °FClear.3 mph93%30.24 "Hg10 mi
2:30 am43 °FClear.3 mph93%30.24 "Hg10 mi
2:00 am45 °FClear.3 mph100%30.24 "Hg10 mi
1:30 am46 °FClear.1 mph93%30.24 "Hg10 mi
1:00 am46 °FClear.1 mph82%30.24 "Hg10 mi
12:30 am46 °FClear.3 mph76%30.24 "Hg10 mi
12:00 am46 °FClear.1 mph76%30.24 "Hg10 mi
11:30 pm
Thu, Apr 25
52 °FClear.3 mph67%30.24 "Hg10 mi
11:00 pm52 °FClear.6 mph67%30.24 "Hg10 mi
10:30 pm54 °FClear.10 mph58%30.24 "Hg10 mi
10:00 pm55 °FClear.10 mph59%30.24 "Hg10 mi
9:30 pm57 °FClear.8 mph51%30.27 "Hg10 mi
9:00 pm59 °FClear.8 mph51%30.27 "Hg10 mi
8:30 pm61 °FClear.8 mph45%30.24 "Hg10 mi
8:00 pm63 °FClear.8 mph45%30.24 "Hg10 mi
7:30 pm63 °FClear.8 mph45%30.24 "Hg10 mi
7:00 pm66 °FSunny.8 mph40%30.24 "Hg10 mi
6:30 pm68 °FSunny.10 mph38%30.24 "Hg10 mi
6:00 pm70 °FSunny.8 mph35%30.24 "Hg10 mi
5:30 pm72 °FSunny.13 mph33%30.24 "Hg10 mi
5:00 pm72 °FPassing clouds.10 mph36%30.24 "HgN/A
Weather by CustomWeather, © 2019

See weather overview